Weather History for Henderson, NV

Change the Weather History Date:

Thursday, October 10, 2013

  Actual Average (KLAS) Record (KLAS)
Temperature  
Mean Temperature 56 °F 72 °F  
Max Temperature 64 °F 83 °F 97 °F (1991)
Min Temperature 48 °F 61 °F 40 °F (1961)
Degree Days  
Heating Degree Days 9 0  
Month to date heating degree days 0  
Since 1 July heating degree days 1  
Cooling Degree Days 0 7  
Month to date cooling degree days 92  
Year to date cooling degree days 3469  
Growing Degree Days 6 (Base 50)    
Moisture  
Dew Point 38 °F    
Average Humidity 51    
Maximum Humidity 68    
Minimum Humidity 35    
Precipitation  
Precipitation 0.00 in 0.01 in 0.16 in (2012)
Month to date precipitation 0.07  
Year to date precipitation 3.13  
Snow  
Snow 0.00 in 0.00 in 0.00 in ()
Month to date snowfall 0.0  
Since 1 July snowfall 0.0  
Since 1 September snowfall 0.0  
Snow Depth -    
Sea Level Pressure  
Sea Level Pressure 29.86 in    
Wind  
Wind Speed 11 mph (SSW)    
Max Wind Speed 16 mph    
Max Gust Speed -    
Visibility 10 miles    
Events      
T = Trace of Precipitation, MM = Missing Value Source: NWS Daily Summary

Daily Weather History Graph

Daily Weather History Graph

Search for Another Location

Airport:

Trip Planner

Search our weather history database for the weather conditions in past years. The results will help you decide how hot, cold, wet, or windy it might be!

Date:

Astronomy

Oct. 10, 2013 Rise Set
Actual Time 6:43 AM PDT 6:10 PM PDT
Civil Twilight 6:17 AM PDT 6:36 PM PDT
Nautical Twilight 5:47 AM PDT 7:06 PM PDT
Astronomical Twilight 5:18 AM PDT 7:35 PM PDT
Moon 12:31 PM PDT (10/10) 11:00 PM PDT (10/10)
Length of Visible Light 12h 19m
Length of Day
11h 27m
Waxing Crescent, 37% of the Moon is Illuminated
Oct 10
Waxing Crescent
Oct 11
First Quarter
Oct 18
Full
Oct 26
Last Quarter
Nov 3
New

Hourly Weather History & Observations

Time (PDT) Temp. Dew Point Humidity Pressure Visibility Wind Dir Wind Speed Gust Speed Precip Events Conditions
12:56 AM 48.9 °F 37.9 °F 66% 29.70 in 10.0 mi SSW 12.7 mph - N/A   Mostly Cloudy
1:56 AM 48.9 °F 38.8 °F 68% 29.72 in 10.0 mi SSW 13.8 mph - N/A   Mostly Cloudy
2:56 AM 50.0 °F 37.9 °F 63% 29.72 in 10.0 mi South 13.8 mph - N/A   Overcast
3:56 AM 50.0 °F 38.8 °F 66% 29.72 in 10.0 mi SSW 10.4 mph - N/A   Mostly Cloudy
4:56 AM 50.9 °F 38.8 °F 63% 29.73 in 10.0 mi SSW 13.8 mph - 0.00 in   Overcast
5:56 AM 50.9 °F 38.8 °F 63% 29.75 in 10.0 mi SSW 16.1 mph - N/A   Overcast
6:56 AM 50.9 °F 39.9 °F 66% 29.78 in 10.0 mi SSW 13.8 mph - 0.00 in   Mostly Cloudy
7:56 AM 50.9 °F 38.8 °F 63% 29.81 in 10.0 mi South 13.8 mph - N/A   Mostly Cloudy
8:56 AM 52.0 °F 38.8 °F 61% 29.85 in 10.0 mi SSW 12.7 mph - 0.00 in   Overcast
9:56 AM 55.9 °F 38.8 °F 53% 29.87 in 10.0 mi South 8.1 mph - N/A   Scattered Clouds
10:56 AM 59.0 °F 39.9 °F 49% 29.88 in 10.0 mi SE 4.6 mph - N/A   Partly Cloudy
11:56 AM 61.0 °F 41.0 °F 48% 29.88 in 10.0 mi SSW 13.8 mph - N/A   Mostly Cloudy
12:56 PM 61.9 °F 38.8 °F 43% 29.88 in 10.0 mi West 9.2 mph - N/A   Mostly Cloudy
1:56 PM 63.9 °F 36.9 °F 37% 29.88 in 10.0 mi WSW 9.2 mph - N/A   Scattered Clouds
2:56 PM 63.9 °F 36.0 °F 36% 29.90 in 10.0 mi WSW 4.6 mph - N/A   Mostly Cloudy
3:56 PM 64.9 °F 36.9 °F 35% 29.90 in 10.0 mi West 5.8 mph - N/A   Partly Cloudy
4:56 PM 64.9 °F 37.9 °F 37% 29.91 in 10.0 mi West 9.2 mph - N/A   Clear
5:56 PM 63.9 °F 37.9 °F 38% 29.91 in 10.0 mi SW 4.6 mph - N/A   Clear
6:56 PM 61.9 °F 37.9 °F 41% 29.92 in 10.0 mi SSW 9.2 mph - N/A   Clear
7:56 PM 59.0 °F 36.9 °F 44% 29.94 in 10.0 mi South 8.1 mph - N/A   Clear
8:56 PM 57.9 °F 36.9 °F 45% 29.95 in 10.0 mi South 8.1 mph - N/A   Clear
9:56 PM 55.9 °F 36.9 °F 49% 29.98 in 10.0 mi South 6.9 mph - N/A   Clear
10:56 PM 56.8 °F 36.9 °F 47% 29.97 in 10.0 mi South 6.9 mph - N/A   Partly Cloudy
11:56 PM 54.9 °F 36.9 °F 51% 29.98 in 10.0 mi SW 8.1 mph - N/A   Clear